J. Percy Priest Lake Weather Center

Moon Phase Calendar



J. Percy Priest Lake Water Level
Online Cameras

 


      

Current Conditions in Rural Hill
5/18/2024 11:25:40 AM

73°F
Feels Like 74
Clouds
Humidity
79%
Pressure
29.59"
Wind
5.8 mph (ENE)
Dew Point
66°F
UV Index
3/10 (Moderate)
Visibility
6 mi

Hourly Forecast

Date & Time Sat, May 18
11:00 AM
Sat, May 18
12:00 PM
Sat, May 18
1:00 PM
Sat, May 18
2:00 PM
Sat, May 18
3:00 PM
Sat, May 18
4:00 PM
Sat, May 18
5:00 PM
Sat, May 18
6:00 PM
Sat, May 18
7:00 PM
Sat, May 18
8:00 PM
Sat, May 18
9:00 PM
Sat, May 18
10:00 PM
Sat, May 18
11:00 PM
Sun, May 19
12:00 AM
Sun, May 19
1:00 AM
Sun, May 19
2:00 AM
Sun, May 19
3:00 AM
Sun, May 19
4:00 AM
Sun, May 19
5:00 AM
Sun, May 19
6:00 AM
Sun, May 19
7:00 AM
Sun, May 19
8:00 AM
Sun, May 19
9:00 AM
Sun, May 19
10:00 AM
Sun, May 19
11:00 AM
Sun, May 19
12:00 PM
Sun, May 19
1:00 PM
Sun, May 19
2:00 PM
Sun, May 19
3:00 PM
Sun, May 19
4:00 PM
Sun, May 19
5:00 PM
Sun, May 19
6:00 PM
Sun, May 19
7:00 PM
Sun, May 19
8:00 PM
Sun, May 19
9:00 PM
Sun, May 19
10:00 PM
Sun, May 19
11:00 PM
Mon, May 20
12:00 AM
Mon, May 20
1:00 AM
Mon, May 20
2:00 AM
Mon, May 20
3:00 AM
Mon, May 20
4:00 AM
Mon, May 20
5:00 AM
Mon, May 20
6:00 AM
Mon, May 20
7:00 AM
Mon, May 20
8:00 AM
Mon, May 20
9:00 AM
Mon, May 20
10:00 AM
Condition
Clouds

Clouds

Clouds

Rain

Rain

Rain

Rain

Rain

Rain

Clouds

Clouds

Clouds

Clouds

Clouds

Clouds

Clouds

Clouds

Clouds

Clouds

Clouds

Clouds

Clear

Clear

Clear

Clear

Clear

Clear

Clear

Clear

Clear

Clear

Clear

Clear

Clear

Clear

Clear

Clear

Clear

Clear

Clear

Clear

Clear

Clear

Clear

Clear

Clear

Clear

Clear
Temperature 73°F74°F74°F74°F74°F74°F74°F71°F69°F67°F66°F66°F65°F65°F64°F64°F63°F62°F62°F62°F64°F67°F71°F75°F78°F80°F81°F82°F82°F82°F80°F79°F75°F71°F69°F67°F66°F65°F64°F64°F64°F64°F63°F63°F66°F70°F73°F77°F
Feels Like 74°F75°F75°F75°F75°F75°F75°F72°F70°F68°F67°F66°F66°F65°F65°F64°F63°F63°F62°F62°F64°F67°F71°F75°F78°F80°F82°F83°F82°F82°F81°F79°F75°F71°F69°F68°F67°F65°F65°F65°F64°F64°F63°F63°F66°F70°F74°F77°F
Cloudiness 75%80%84%90%95%99%99%99%99%100%99%99%99%100%100%100%62%47%40%35%31%2%1%1%0%0%0%0%0%0%0%0%0%0%0%0%0%0%0%0%0%0%0%0%0%0%0%0%
Visibility 6 mi6 mi6 mi6 mi6 mi6 mi6 mi6 mi6 mi6 mi6 mi6 mi6 mi6 mi6 mi6 mi6 mi6 mi6 mi6 mi6 mi6 mi6 mi6 mi6 mi6 mi6 mi6 mi6 mi6 mi6 mi6 mi6 mi6 mi6 mi6 mi6 mi6 mi6 mi6 mi6 mi6 mi6 mi6 mi6 mi6 mi6 mi6 mi
Precipitation 55%85%80%100%100%100%100%100%100%35%16%8%5%2%1%0%0%0%0%0%0%0%0%0%0%0%0%0%0%0%0%0%0%0%0%0%0%0%0%0%0%0%0%0%0%0%0%0%
Humidity 79%75%78%78%79%80%86%89%89%92%93%94%95%96%97%98%98%98%98%98%95%88%77%68%61%55%51%49%48%49%53%61%72%80%82%83%84%86%87%88%89%90%90%90%85%77%73%67%
Dew Point 66°F66°F67°F67°F67°F68°F69°F67°F65°F65°F64°F64°F64°F64°F63°F63°F62°F62°F61°F61°F62°F63°F63°F63°F63°F62°F62°F61°F60°F61°F62°F64°F65°F64°F63°F62°F61°F61°F60°F60°F60°F60°F60°F60°F61°F62°F64°F65°F
Pressure 29.59"29.65"29.68"29.74"29.77"29.83"29.83"29.83"29.83"29.85"29.85"29.85"29.88"29.88"29.88"29.88"29.88"29.91"29.91"29.94"29.94"29.97"29.97"29.97"29.97"29.97"29.94"29.94"29.94"29.94"29.91"29.91"29.94"29.94"29.94"29.97"29.97"29.97"29.94"29.97"29.97"29.94"29.94"29.94"29.97"30"30"30"
Wind Speed 1.4 mph1.2 mph2.2 mph3 mph2.1 mph2.6 mph2.5 mph3.7 mph5.1 mph4.8 mph4.6 mph4.2 mph4.5 mph4.3 mph4 mph4.1 mph4.2 mph4.2 mph4.3 mph4.3 mph4.4 mph6.3 mph6.6 mph6.9 mph7.6 mph8.5 mph9.3 mph9.4 mph9 mph8.7 mph8.2 mph6.8 mph5.1 mph4.5 mph4.4 mph3.6 mph3.2 mph3.1 mph2.3 mph2 mph2.1 mph4 mph1.5 mph3.4 mph3.7 mph6 mph7.2 mph7.6 mph
Wind
Direction
139°
SE
195°
SSW
230°
SW
276°
W
316°
NW

N
340°
NNW

N
14°
NNE
23°
NNE
11°
N

N
351°
N
355°
N
358°
N
345°
NNW
353°
N
352°
N
350°
N
356°
N

N
25°
NNE
26°
NNE
32°
NNE
34°
NE
35°
NE
38°
NE
35°
NE
35°
NE
31°
NNE
24°
NNE
16°
NNE
16°
NNE
23°
NNE
44°
NE
46°
NE
53°
NE
59°
ENE
52°
NE
35°
NE
74°
ENE
119°
ESE
146°
SE
151°
SSE
166°
SSE
182°
S
202°
SSW
198°
SSW

Daily Forecast

Date High Low Precip. Humidity
Today
May 18

Rain
74 °F
61 °F
100%
75%
Sunday
May 19

Clear
82 °F
62 °F
2%
55%
Monday
May 20

Rain
84 °F
63 °F
20%
57%
Tuesday
May 21

Clouds
85 °F
65 °F
0%
50%
Wednesday
May 22

Rain
86 °F
70 °F
100%
53%
Thursday
May 23

Rain
80 °F
66 °F
100%
60%
Friday
May 24

Rain
69 °F
63 °F
100%
98%
Saturday
May 25

Rain
80 °F
62 °F
100%
71%
Sunday
May 26

Rain
80 °F
67 °F
87%
67%
Monday
May 27

Rain
85 °F
70 °F
100%
62%
Tuesday
May 28

Rain
71 °F
54 °F
100%
95%
Wednesday
May 29

Clouds
67 °F
52 °F
0%
55%
Thursday
May 30

Clear
67 °F
51 °F
0%
36%
Friday
May 31

Clear
70 °F
51 °F
0%
44%
Saturday
Jun 1

Clear
75 °F
52 °F
0%
44%
Sunday
Jun 2

Clouds
79 °F
55 °F
0%
42%

Temperature 8-14 Day Outlook



Precipitation 8-14 Day Outlook






About Us
Contact Us
Site Map
Search Site
Advertise With Us
   
PercyPriest.USLakes.info
THE J. PERCY PRIEST LAKE WEBSITE

Copyright 2024, Lakes Online
Privacy    |    Legal